FW2736 Weather Reports


Display with metric or nautical units.
time (UTC)temp
F
wind
direction
speed
MPH
gust
MPH
rain 1hr
in
rain 24hr
in
rain mn
in
humidity
%
barometer
mb
20260508122413 52 314 4.0 0.0 0.00 0.00 0.00 93 1017.6
20260508121912 52 323 4.0 0.0 0.00 0.00 0.00 93 1017.6
20260508121341 52 356 0.0 0.0 0.00 0.00 0.00 92 1017.6
20260508120912 52 299 0.0 0.0 0.00 0.00 0.00 92 1017.6
20260508120412 52 294 0.0 0.0 0.00 0.00 0.00 92 1017.3
20260508115912 52 312 0.0 0.0 0.00 0.00 0.00 92 1017.3
20260508115412 53 238 0.0 0.0 0.00 0.00 0.00 92 1017.3
20260508114913 53 295 3.0 0.0 0.00 0.00 0.00 92 1017.3
20260508114413 53 315 3.0 0.0 0.00 0.00 0.00 92 1017.3
20260508113914 53 233 4.0 0.0 0.00 0.00 0.00 92 1017.3
20260508113411 53 309 0.0 0.0 0.00 0.00 0.00 91 1017.3
20260508112912 53 298 0.0 0.0 0.00 0.00 0.00 91 1017.3
20260508112412 53 229 0.0 0.0 0.00 0.00 0.00 91 1017.3
20260508111911 53 158 0.0 0.0 0.00 0.00 0.00 91 1017.3
20260508111415 53 150 0.0 0.0 0.00 0.00 0.00 91 1017.3
20260508110913 53 252 0.0 0.0 0.00 0.00 0.00 90 1017.3
20260508110349 52 2 0.0 0.0 0.00 0.00 0.00 89 1017.3
20260508105848 52 233 0.0 0.0 0.00 0.00 0.00 90 1017.3
20260508105347 52 267 0.0 0.0 0.00 0.00 0.00 89 1017.3
20260508104846 53 269 0.0 0.0 0.00 0.00 0.00 89 1017.3
20260508104346 53 274 0.0 0.0 0.00 0.00 0.00 89 1017.3
20260508103945 53 286 0.0 0.0 0.00 0.00 0.00 89 1017.3
20260508103444 53 276 0.0 0.0 0.00 0.00 0.00 89 1017.3
20260508102848 53 276 0.0 0.0 0.00 0.00 0.00 89 1017.3
20260508102347 54 281 0.0 0.0 0.00 0.00 0.00 89 1017.3
20260508101946 54 289 0.0 0.0 0.00 0.00 0.00 89 1017.3
20260508101344 54 306 0.0 0.0 0.00 0.00 0.00 89 1017.3
20260508100943 54 307 0.0 0.0 0.00 0.00 0.00 88 1017.6
20260508100345 54 309 0.0 0.0 0.00 0.00 0.00 88 1017.3
20260508095844 54 297 0.0 0.0 0.00 0.00 0.00 88 1017.3
20260508095447 54 310 0.0 0.0 0.00 0.00 0.00 88 1017.3
20260508094943 54 193 0.0 0.0 0.00 0.00 0.00 87 1017.3
20260508094444 54 170 0.0 0.0 0.00 0.00 0.00 87 1017.3
20260508093944 54 296 0.0 0.0 0.00 0.00 0.00 86 1017.3
20260508093342 55 234 0.0 0.0 0.00 0.00 0.00 86 1017.3
20260508092944 55 288 0.0 0.0 0.00 0.00 0.00 86 1017.3
20260508092442 55 282 0.0 0.0 0.00 0.00 0.00 86 1017.3
20260508091942 55 289 0.0 0.0 0.00 0.00 0.00 86 1017.3
20260508091444 55 289 0.0 0.0 0.00 0.00 0.00 85 1017.3
20260508090941 56 305 0.0 0.0 0.00 0.00 0.00 85 1017.3
20260508090443 56 315 0.0 0.0 0.00 0.00 0.00 85 1017.3
20260508085946 56 288 0.0 0.0 0.00 0.00 0.00 85 1017.3
20260508085441 57 282 0.0 0.0 0.00 0.00 0.00 85 1017.3
20260508084941 57 292 0.0 0.0 0.00 0.00 0.00 85 1017.3
20260508084440 57 303 0.0 0.0 0.00 0.00 0.00 85 1017.6
20260508083841 57 293 0.0 0.0 0.00 0.00 0.00 85 1017.6
20260508083440 57 318 0.0 0.0 0.00 0.00 0.00 84 1017.6
20260508082940 57 319 0.0 0.0 0.00 0.00 0.00 84 1017.6
20260508082439 58 274 0.0 0.0 0.00 0.00 0.00 83 1017.6
20260508081941 58 259 0.0 0.0 0.00 0.00 0.00 84 1017.6
20260508081442 58 242 0.0 0.0 0.00 0.00 0.00 83 1017.6
20260508080942 58 300 0.0 0.0 0.00 0.00 0.00 83 1017.6
20260508080441 58 292 0.0 0.0 0.00 0.00 0.00 83 1017.9
20260508075839 58 328 0.0 0.0 0.00 0.00 0.00 83 1017.9
20260508075441 59 317 0.0 0.0 0.00 0.00 0.00 83 1017.9
20260508074939 59 306 0.0 0.0 0.00 0.00 0.00 83 1017.9
20260508074337 59 315 0.0 0.0 0.00 0.00 0.00 82 1018.3
20260508073936 59 341 0.0 0.0 0.00 0.00 0.00 82 1018.3
20260508073438 59 251 0.0 0.0 0.00 0.00 0.00 81 1018.3
20260508072936 59 274 0.0 0.0 0.00 0.00 0.00 81 1018.3
20260508072436 60 294 0.0 0.0 0.00 0.00 0.00 80 1018.3
20260508071940 60 297 0.0 0.0 0.00 0.00 0.00 79 1018.3
20260508071437 60 304 0.0 0.0 0.00 0.00 0.00 79 1017.9
20260508070937 60 281 0.0 0.0 0.00 0.00 0.00 79 1017.9
20260508070436 61 301 3.0 0.0 0.00 0.00 0.00 78 1017.9
20260508065937 61 286 3.0 0.0 0.00 0.00 0.00 77 1017.9
20260508065435 62 3 0.0 0.0 0.00 0.00 0.00 77 1017.9
20260508064836 62 202 0.0 0.0 0.00 0.00 0.00 77 1017.9
20260508064435 62 236 2.0 0.0 0.00 0.00 0.00 76 1017.9
20260508063933 62 192 3.0 0.0 0.00 0.00 0.00 76 1017.9
20260508063437 63 339 5.0 0.0 0.00 0.00 0.00 76 1017.9
20260508062935 63 242 5.0 0.0 0.00 0.00 0.00 77 1017.9
20260508062434 62 264 5.0 0.0 0.00 0.00 0.00 77 1017.9
20260508061933 62 262 0.0 0.0 0.00 0.00 0.00 75 1017.6
20260508061435 62 267 0.0 0.0 0.00 0.00 0.00 74 1017.9
20260508060934 62 319 0.0 0.0 0.00 0.00 0.00 73 1017.6
20260508060434 63 134 0.0 0.0 0.00 0.00 0.00 73 1017.6
20260508055834 63 272 0.0 0.0 0.00 0.00 0.00 73 1017.6
20260508055434 63 279 0.0 0.0 0.00 0.00 0.00 73 1017.6
20260508054935 63 288 0.0 0.0 0.00 0.00 0.00 72 1017.6
20260508054434 63 239 0.0 0.0 0.00 0.00 0.00 72 1017.6
20260508053933 64 219 0.0 0.0 0.00 0.00 0.00 72 1017.6
20260508053431 64 176 0.0 0.0 0.00 0.00 0.00 71 1017.6
20260508052932 64 232 0.0 0.0 0.00 0.00 0.00 70 1017.6
20260508052433 64 280 0.0 0.0 0.00 0.00 0.00 71 1017.6
20260508051843 64 258 0.0 0.0 0.00 0.00 0.00 70 1017.6
20260508051341 64 284 0.0 0.0 0.00 0.00 0.00 71 1017.6
20260508050932 64 271 0.0 0.0 0.00 0.00 0.00 70 1017.6
20260508050337 65 285 0.0 0.0 0.00 0.00 0.00 69 1017.6
20260508045934 65 227 0.0 0.0 0.00 0.00 0.00 69 1017.6
20260508045431 65 256 0.0 0.0 0.00 0.00 0.00 68 1017.6
20260508044931 66 245 0.0 0.0 0.00 0.00 0.00 68 1017.3
20260508044430 66 216 0.0 0.0 0.00 0.00 0.00 68 1017.3
20260508043931 66 312 0.0 0.0 0.00 0.00 0.00 68 1017.3
20260508043431 66 297 0.0 0.0 0.00 0.00 0.00 66 1017.3
20260508042930 67 287 0.0 0.0 0.00 0.00 0.00 67 1017.3
20260508042430 67 317 0.0 0.0 0.00 0.00 0.00 67 1017.3
20260508041836 67 304 0.0 0.0 0.00 0.00 0.00 64 1016.9
20260508041430 67 322 0.0 0.0 0.00 0.00 0.00 64 1016.9
20260508040843 67 306 0.0 0.0 0.00 0.00 0.00 63 1016.9
20260508040432 68 358 0.0 0.0 0.00 0.00 0.00 61 1016.9
20260508035930 68 230 0.0 0.0 0.00 0.00 0.00 60 1016.6
20260508035428 68 303 0.0 0.0 0.00 0.00 0.00 60 1016.6
20260508034930 69 289 0.0 0.0 0.00 0.00 0.00 60 1016.6
20260508034429 69 289 0.0 0.0 0.00 0.00 0.00 59 1016.6
20260508033930 69 299 0.0 0.0 0.00 0.00 0.00 58 1016.6
20260508033429 69 252 4.0 0.0 0.00 0.00 0.00 58 1016.3
20260508032929 70 227 4.0 0.0 0.00 0.00 0.00 60 1016.3
20260508032338 70 242 4.0 0.0 0.00 0.00 0.00 59 1016.3
20260508031829 71 143 3.0 0.0 0.00 0.00 0.00 57 1016.3
20260508031338 71 255 5.0 0.0 0.00 0.00 0.00 56 1016.3
20260508030830 72 131 5.0 0.0 0.00 0.00 0.00 56 1016.3
20260508030341 72 193 2.0 0.0 0.00 0.00 0.00 54 1016.3
20260508025837 73 141 7.0 0.0 0.00 0.00 0.00 53 1015.9
20260508025342 73 134 7.0 0.0 0.00 0.00 0.00 54 1015.9
20260508024836 73 232 7.0 0.0 0.00 0.00 0.00 54 1015.9
20260508024327 74 92 6.0 0.0 0.00 0.00 0.00 53 1015.6
20260508023839 74 38 5.0 0.0 0.00 0.00 0.00 51 1015.6
20260508023336 75 126 7.0 0.0 0.00 0.00 0.00 51 1015.6
20260508022838 76 145 7.0 0.0 0.00 0.00 0.00 49 1015.2
20260508022327 77 68 0.0 0.0 0.00 0.00 0.00 46 1015.2
20260508021826 77 87 0.0 0.0 0.00 0.00 0.00 42 1015.2
20260508021337 77 350 0.0 0.0 0.00 0.00 0.00 41 1015.2
20260508020836 78 315 4.0 0.0 0.00 0.00 0.00 40 1015.2
20260508020343 78 296 6.0 0.0 0.00 0.00 0.00 39 1015.2
20260508015840 79 316 7.0 0.0 0.00 0.00 0.00 39 1015.2
20260508015338 79 314 6.0 0.0 0.00 0.00 0.00 38 1015.2
20260508014843 79 336 7.0 0.0 0.00 0.00 0.00 38 1015.2
20260508014336 80 351 6.0 0.0 0.00 0.00 0.00 37 1015.2
20260508013838 80 314 6.0 0.0 0.00 0.00 0.00 36 1015.2
20260508013338 81 302 6.0 0.0 0.00 0.00 0.00 36 1015.2
20260508012824 81 308 4.0 0.0 0.00 0.00 0.00 35 1015.2
20260508012343 82 289 7.0 0.0 0.00 0.00 0.00 34 1015.2
20260508011840 82 342 5.0 0.0 0.00 0.00 0.00 34 1014.9
20260508011343 84 268 7.0 0.0 0.00 0.00 0.00 33 1014.9
20260508010841 85 292 6.0 0.0 0.00 0.00 0.00 32 1014.9
20260508010338 86 315 6.0 0.0 0.00 0.00 0.00 31 1014.9
20260508005836 86 280 6.0 0.0 0.00 0.00 0.00 31 1014.9
20260508005340 86 320 6.0 0.0 0.00 0.00 0.00 30 1014.9
20260508004837 87 314 7.0 0.0 0.00 0.00 0.00 30 1014.9
20260508004339 87 305 7.0 0.0 0.00 0.00 0.00 27 1014.9
20260508003837 87 277 9.0 0.0 0.00 0.00 0.00 28 1014.9
20260508003341 88 311 8.0 0.0 0.00 0.00 0.00 28 1014.9
20260508002838 88 323 9.0 0.0 0.00 0.00 0.00 28 1014.6
20260508002338 88 6 9.0 0.0 0.00 0.00 0.00 27 1014.9
20260508001838 89 287 9.0 0.0 0.00 0.00 0.00 27 1014.6
20260508001343 89 285 8.0 0.0 0.00 0.00 0.00 27 1014.6
20260508000840 88 304 10.0 0.0 0.00 0.00 0.00 27 1014.6
20260508000342 89 314 8.0 0.0 0.00 0.00 0.00 27 1014.6
20260507235839 89 303 10.0 0.0 0.00 0.00 0.00 27 1014.6
20260507235339 89 331 11.0 0.0 0.00 0.00 0.00 27 1014.6
20260507234836 89 312 10.0 0.0 0.00 0.00 0.00 27 1014.6
20260507234342 89 328 13.0 0.0 0.00 0.00 0.00 27 1014.6
20260507233841 89 287 13.0 0.0 0.00 0.00 0.00 27 1014.6
20260507233338 90 285 10.0 0.0 0.00 0.00 0.00 26 1014.6
20260507232835 90 292 8.0 0.0 0.00 0.00 0.00 27 1014.6
20260507232338 90 12 13.0 0.0 0.00 0.00 0.00 26 1014.6
20260507231840 90 331 13.0 0.0 0.00 0.00 0.00 26 1014.2
20260507231335 89 334 13.0 0.0 0.00 0.00 0.00 26 1014.6
20260507230842 90 294 13.0 0.0 0.00 0.00 0.00 26 1014.6
20260507230339 89 313 14.0 0.0 0.00 0.00 0.00 27 1014.2
20260507225838 90 315 13.0 0.0 0.00 0.00 0.00 25 1014.2
20260507225337 90 308 13.0 0.0 0.00 0.00 0.00 26 1014.6
20260507224839 90 312 13.0 0.0 0.00 0.00 0.00 26 1014.6
20260507224341 89 314 15.0 0.0 0.00 0.00 0.00 26 1014.6
20260507223839 90 334 15.0 0.0 0.00 0.00 0.00 26 1014.6
20260507223342 90 306 14.0 0.0 0.00 0.00 0.00 28 1014.6
20260507222838 90 359 14.0 0.0 0.00 0.00 0.00 29 1014.6
20260507222339 90 324 9.0 0.0 0.00 0.00 0.00 27 1014.6
20260507221839 90 304 11.0 0.0 0.00 0.00 0.00 28 1014.6
20260507221342 90 310 13.0 0.0 0.00 0.00 0.00 28 1014.6
20260507220843 90 303 14.0 0.0 0.00 0.00 0.00 28 1014.6
20260507220340 91 1 15.0 0.0 0.00 0.00 0.00 27 1014.6
20260507215837 91 135 13.0 0.0 0.00 0.00 0.00 27 1014.9
20260507215339 92 254 11.0 0.0 0.00 0.00 0.00 27 1014.9
20260507214841 92 285 8.0 0.0 0.00 0.00 0.00 27 1014.9
20260507214341 91 295 11.0 0.0 0.00 0.00 0.00 27 1014.9
20260507213837 91 329 16.0 0.0 0.00 0.00 0.00 27 1014.9
20260507213341 91 322 16.0 0.0 0.00 0.00 0.00 27 1014.9
20260507212843 92 281 12.0 0.0 0.00 0.00 0.00 28 1015.2
20260507212340 92 303 12.0 0.0 0.00 0.00 0.00 28 1015.2
20260507211835 91 296 10.0 0.0 0.00 0.00 0.00 28 1015.2
20260507211340 91 345 13.0 0.0 0.00 0.00 0.00 28 1015.2
20260507210841 90 5 15.0 0.0 0.00 0.00 0.00 29 1015.2
20260507210344 91 337 12.0 0.0 0.00 0.00 0.00 29 1015.2
20260507205841 91 352 10.0 0.0 0.00 0.00 0.00 27 1015.2
20260507205341 91 248 13.0 0.0 0.00 0.00 0.00 29 1015.2
20260507204839 92 322 13.0 0.0 0.00 0.00 0.00 28 1015.6
20260507204341 92 320 9.0 0.0 0.00 0.00 0.00 27 1015.6
20260507203840 91 358 14.0 0.0 0.00 0.00 0.00 29 1015.6
20260507203338 90 334 14.0 0.0 0.00 0.00 0.00 27 1015.6
20260507202842 92 251 9.0 0.0 0.00 0.00 0.00 27 1015.6
20260507202344 92 3 7.0 0.0 0.00 0.00 0.00 25 1015.6
20260507201839 92 312 9.0 0.0 0.00 0.00 0.00 27 1015.6
20260507201341 91 332 10.0 0.0 0.00 0.00 0.00 26 1015.6
20260507200836 92 350 9.0 0.0 0.00 0.00 0.00 25 1015.6
20260507200342 92 151 11.0 0.0 0.00 0.00 0.00 26 1015.9
20260507195838 91 337 11.0 0.0 0.00 0.00 0.00 26 1015.9
20260507195342 91 1 9.0 0.0 0.00 0.00 0.00 25 1015.9
20260507194839 91 272 10.0 0.0 0.00 0.00 0.00 25 1016.3
20260507194342 90 12 10.0 0.0 0.00 0.00 0.00 26 1016.3
20260507193844 91 72 6.0 0.0 0.00 0.00 0.00 27 1016.3
20260507193341 89 243 6.0 0.0 0.00 0.00 0.00 29 1016.3
20260507192841 89 73 6.0 0.0 0.00 0.00 0.00 30 1016.3
20260507192342 88 132 6.0 0.0 0.00 0.00 0.00 31 1016.3
20260507191841 87 66 7.0 0.0 0.00 0.00 0.00 32 1016.6
20260507191339 87 82 6.0 0.0 0.00 0.00 0.00 33 1016.6
20260507190839 88 34 7.0 0.0 0.00 0.00 0.00 32 1016.6
20260507190335 88 50 6.0 0.0 0.00 0.00 0.00 32 1016.6
20260507185840 88 99 6.0 0.0 0.00 0.00 0.00 32 1016.9
20260507185338 88 265 6.0 0.0 0.00 0.00 0.00 33 1016.9
20260507184841 87 316 5.0 0.0 0.00 0.00 0.00 33 1016.9
20260507184344 86 343 6.0 0.0 0.00 0.00 0.00 34 1016.9
20260507183843 86 305 6.0 0.0 0.00 0.00 0.00 34 1016.9
20260507183339 85 43 7.0 0.0 0.00 0.00 0.00 35 1017.3
20260507182837 85 95 7.0 0.0 0.00 0.00 0.00 36 1017.3
20260507182341 84 104 6.0 0.0 0.00 0.00 0.00 37 1017.3
20260507181942 85 144 6.0 0.0 0.00 0.00 0.00 36 1017.3
20260507181612 84 127 6.0 0.0 0.00 0.00 0.00 36 1017.3
20260507180811 84 159 6.0 0.0 0.00 0.00 0.00 38 1017.3
20260507180338 83 153 6.0 0.0 0.00 0.00 0.00 40 1017.3
20260507175844 83 84 6.0 0.0 0.00 0.00 0.00 40 1017.6
20260507175336 83 225 5.0 0.0 0.00 0.00 0.00 40 1017.6
20260507174840 82 43 4.0 0.0 0.00 0.00 0.00 41 1017.6
20260507174339 81 130 4.0 0.0 0.00 0.00 0.00 42 1017.6
20260507173843 81 185 3.0 0.0 0.00 0.00 0.00 43 1017.6
20260507173336 80 41 6.0 0.0 0.00 0.00 0.00 43 1017.6
20260507172844 80 100 4.0 0.0 0.00 0.00 0.00 43 1017.6
20260507172325 80 122 4.0 0.0 0.00 0.00 0.00 45 1017.6
20260507171825 79 81 4.0 0.0 0.00 0.00 0.00 45 1017.6
20260507171325 79 125 4.0 0.0 0.00 0.00 0.00 44 1017.6
20260507170825 79 252 3.0 0.0 0.00 0.00 0.00 44 1017.9
20260507170327 79 238 4.0 0.0 0.00 0.00 0.00 46 1017.9
20260507165839 78 311 4.0 0.0 0.00 0.00 0.00 47 1017.9
20260507165323 78 79 4.0 0.0 0.00 0.00 0.00 47 1017.9
20260507164838 77 122 4.0 0.0 0.00 0.00 0.00 47 1017.9
20260507164339 77 321 4.0 0.0 0.00 0.00 0.00 47 1017.9
20260507163836 77 106 3.0 0.0 0.00 0.00 0.00 47 1017.9
20260507163337 76 251 4.0 0.0 0.00 0.00 0.00 49 1018.3
20260507162838 75 288 4.0 0.0 0.00 0.00 0.00 51 1018.3
20260507162338 74 71 4.0 0.0 0.00 0.00 0.00 51 1018.3
20260507161837 74 66 4.0 0.0 0.00 0.00 0.00 52 1018.3
20260507161338 73 134 4.0 0.0 0.00 0.00 0.00 52 1018.3
20260507160841 72 117 3.0 0.0 0.00 0.00 0.00 54 1018.3
20260507160338 72 119 5.0 0.0 0.00 0.00 0.00 55 1018.3
20260507155841 71 215 5.0 0.0 0.00 0.00 0.00 57 1018.3
20260507155340 70 46 5.0 0.0 0.00 0.00 0.00 57 1018.3
20260507154841 71 299 4.0 0.0 0.00 0.00 0.00 57 1018.3
20260507154340 71 354 0.0 0.0 0.00 0.00 0.00 56 1018.3
20260507153822 70 38 0.0 0.0 0.00 0.00 0.00 57 1018.3
20260507153342 69 138 0.0 0.0 0.00 0.00 0.00 59 1018.3
20260507152841 69 186 0.0 0.0 0.00 0.00 0.00 60 1018.3
20260507152342 68 13 0.0 0.0 0.00 0.00 0.00 60 1018.3
20260507151837 68 152 0.0 0.0 0.00 0.00 0.00 62 1018.3
20260507151340 67 102 0.0 0.0 0.00 0.00 0.00 63 1018.3
20260507150841 67 109 0.0 0.0 0.00 0.00 0.00 64 1018.3
20260507150336 65 349 0.0 0.0 0.00 0.00 0.00 65 1018.3
20260507145843 65 50 0.0 0.0 0.00 0.00 0.00 65 1018.3
20260507145341 65 68 0.0 0.0 0.00 0.00 0.00 67 1018.3
20260507144841 64 157 0.0 0.0 0.00 0.00 0.00 68 1018.3
20260507144318 63 53 0.0 0.0 0.00 0.00 0.00 70 1018.3
20260507143837 62 74 0.0 0.0 0.00 0.00 0.00 73 1018.3
20260507143342 62 41 0.0 0.0 0.00 0.00 0.00 73 1018.3
20260507142838 61 354 0.0 0.0 0.00 0.00 0.00 75 1018.3
20260507142336 60 348 0.0 0.0 0.00 0.00 0.00 76 1018.3
20260507141837 59 311 0.0 0.0 0.00 0.00 0.00 78 1018.3
20260507141337 59 331 0.0 0.0 0.00 0.00 0.00 79 1018.3
20260507140841 58 51 0.0 0.0 0.00 0.00 0.00 81 1018.3
20260507140338 57 350 0.0 0.0 0.00 0.00 0.00 82 1018.3
20260507135841 57 315 0.0 0.0 0.00 0.00 0.00 84 1018.3
20260507135341 57 342 0.0 0.0 0.00 0.00 0.00 87 1018.3
20260507134819 56 356 0.0 0.0 0.00 0.00 0.00 88 1018.3
20260507134343 55 334 0.0 0.0 0.00 0.00 0.00 89 1018.3
20260507133842 53 309 0.0 0.0 0.00 0.00 0.00 90 1018.3
20260507133341 52 152 0.0 0.0 0.00 0.00 0.00 89 1018.3
20260507132837 51 294 0.0 0.0 0.00 0.00 0.00 89 1017.9
20260507132337 50 294 0.0 0.0 0.00 0.00 0.00 89 1018.3
20260507131838 50 288 0.0 0.0 0.00 0.00 0.00 89 1017.9
20260507131337 50 232 0.0 0.0 0.00 0.00 0.00 89 1017.9
20260507130841 50 278 0.0 0.0 0.00 0.00 0.00 89 1017.9
20260507130336 50 293 0.0 0.0 0.00 0.00 0.00 89 1017.9
20260507125839 50 288 0.0 0.0 0.00 0.00 0.00 89 1017.6
20260507125315 50 270 0.0 0.0 0.00 0.00 0.00 88 1017.6
20260507124842 50 284 0.0 0.0 0.00 0.00 0.00 88 1017.6
20260507124342 50 296 0.0 0.0 0.00 0.00 0.00 88 1017.6
20260507123837 50 290 0.0 0.0 0.00 0.00 0.00 87 1017.6
20260507123314 51 190 0.0 0.0 0.00 0.00 0.00 87 1017.6
20260507122838 51 295 0.0 0.0 0.00 0.00 0.00 87 1017.6